| time (UTC) | temp F | wind direction | speed MPH | gust MPH | rain 1hr in | rain 24hr in | rain mn in | humidity % | barometer mb |
| 20260506073112 | 63 | 205 | 0.0 | 2.0 | 0.00 | 0.00 | 0.00 | 84 | 1015.6 |
| 20260506071601 | 63 | 165 | 0.0 | 2.0 | 0.00 | 0.00 | 0.00 | 85 | 1015.8 |
| 20260506071504 | 63 | 165 | 0.0 | 2.0 | 0.00 | 0.00 | 0.00 | 86 | 1015.8 |
| 20260506061528 | 65 | 141 | 0.0 | 1.0 | 0.00 | 0.00 | 0.00 | 83 | 1015.8 |
| 20260506044532 | 67 | 356 | 1.0 | 5.0 | 0.00 | 0.00 | 0.00 | 80 | 1016.9 |
| 20260506043022 | 67 | 157 | 1.0 | 8.0 | 0.00 | 0.00 | 0.00 | 80 | 1017.0 |
| 20260506041522 | 67 | 141 | 0.0 | 3.0 | 0.00 | 0.00 | 0.00 | 80 | 1017.2 |
| 20260506040017 | 67 | 230 | 0.0 | 7.0 | 0.00 | 0.00 | 0.00 | 79 | 1017.1 |
| 20260506034557 | 68 | 133 | 2.0 | 9.0 | 0.00 | 0.00 | 0.00 | 78 | 1017.3 |
| 20260506033101 | 67 | 175 | 3.0 | 6.0 | 0.00 | 0.00 | 0.00 | 78 | 1017.2 |
| 20260506030020 | 67 | 136 | 0.0 | 2.0 | 0.00 | 0.00 | 0.00 | 81 | 1017.4 |
| 20260506024520 | 67 | 148 | 0.0 | 6.0 | 0.00 | 0.00 | 0.00 | 80 | 1017.5 |
| 20260506023105 | 67 | 144 | 0.0 | 7.0 | 0.00 | 0.00 | 0.00 | 79 | 1017.4 |
| 20260506021701 | 67 | 129 | 2.0 | 8.0 | 0.00 | 0.00 | 0.00 | 80 | 1017.5 |
| 20260506020029 | 67 | 176 | 1.0 | 12.0 | 0.00 | 0.00 | 0.00 | 81 | 1017.3 |
| 20260506014526 | 66 | 131 | 0.0 | 4.0 | 0.00 | 0.00 | 0.00 | 83 | 1017.1 |
| 20260506013006 | 66 | 135 | 0.0 | 2.0 | 0.00 | 0.00 | 0.00 | 83 | 1017.1 |
| 20260506011531 | 65 | 122 | 0.0 | 1.0 | 0.00 | 0.00 | 0.00 | 82 | 1017.1 |
| 20260506010038 | 65 | 164 | 0.0 | 0.0 | 0.00 | 0.00 | 0.00 | 82 | 1017.0 |
| 20260506004545 | 65 | 142 | 0.0 | 2.0 | 0.00 | 0.00 | 0.00 | 80 | 1016.9 |
| 20260506003013 | 66 | 195 | 0.0 | 3.0 | 0.00 | 0.00 | 0.00 | 78 | 1016.9 |
| 20260506001510 | 66 | 131 | 0.0 | 1.0 | 0.00 | 0.00 | 0.00 | 76 | 1016.9 |
| 20260506000014 | 67 | 160 | 0.0 | 2.0 | 0.00 | 0.00 | 0.00 | 74 | 1016.9 |
| 20260505234514 | 68 | 155 | 0.0 | 5.0 | 0.00 | 0.00 | 0.00 | 73 | 1017.0 |
| 20260505233058 | 69 | 129 | 0.0 | 4.0 | 0.00 | 0.00 | 0.00 | 72 | 1017.0 |
| 20260505233025 | 69 | 143 | 0.0 | 6.0 | 0.00 | 0.00 | 0.00 | 72 | 1016.9 |
| 20260505231558 | 70 | 254 | 2.0 | 8.0 | 0.00 | 0.00 | 0.00 | 70 | 1016.9 |
| 20260505224555 | 71 | 139 | 5.0 | 12.0 | 0.00 | 0.00 | 0.00 | 67 | 1016.9 |
| 20260505223021 | 72 | 119 | 2.0 | 14.0 | 0.00 | 0.00 | 0.00 | 65 | 1017.0 |
| 20260505221522 | 73 | 127 | 2.0 | 9.0 | 0.00 | 0.00 | 0.00 | 63 | 1016.9 |
| 20260505214558 | 73 | 218 | 3.0 | 11.0 | 0.00 | 0.00 | 0.00 | 64 | 1016.7 |
| 20260505213055 | 72 | 146 | 4.0 | 12.0 | 0.00 | 0.00 | 0.00 | 65 | 1016.6 |
| 20260505213003 | 72 | 129 | 6.0 | 12.0 | 0.00 | 0.00 | 0.00 | 65 | 1016.7 |
| 20260505211553 | 73 | 131 | 7.0 | 14.0 | 0.00 | 0.00 | 0.00 | 64 | 1016.7 |
| 20260505210054 | 72 | 264 | 5.0 | 12.0 | 0.00 | 0.00 | 0.00 | 66 | 1017.0 |
| 20260505204527 | 73 | 135 | 6.0 | 15.0 | 0.00 | 0.00 | 0.00 | 64 | 1016.9 |
| 20260505203027 | 73 | 176 | 7.0 | 14.0 | 0.00 | 0.00 | 0.00 | 64 | 1017.0 |
| 20260505201557 | 74 | 148 | 6.0 | 13.0 | 0.00 | 0.00 | 0.00 | 61 | 1017.1 |
| 20260505200052 | 74 | 108 | 6.0 | 15.0 | 0.00 | 0.00 | 0.00 | 62 | 1017.4 |
| 20260505194601 | 74 | 158 | 4.0 | 20.0 | 0.00 | 0.00 | 0.00 | 63 | 1017.6 |
| 20260505193056 | 75 | 153 | 7.0 | 16.0 | 0.00 | 0.00 | 0.00 | 60 | 1017.8 |
| 20260505191547 | 75 | 11 | 5.0 | 13.0 | 0.00 | 0.00 | 0.00 | 61 | 1018.0 |
| 20260505190045 | 75 | 205 | 3.0 | 14.0 | 0.00 | 0.00 | 0.00 | 61 | 1018.1 |
| 20260505184510 | 74 | 131 | 5.0 | 11.0 | 0.00 | 0.00 | 0.00 | 63 | 1018.0 |
| 20260505183016 | 74 | 155 | 7.0 | 15.0 | 0.00 | 0.00 | 0.00 | 62 | 1018.1 |
| 20260505181607 | 75 | 286 | 2.0 | 14.0 | 0.00 | 0.00 | 0.00 | 63 | 1018.2 |
| 20260505180103 | 75 | 120 | 2.0 | 11.0 | 0.00 | 0.00 | 0.00 | 65 | 1018.3 |
| 20260505174555 | 74 | 176 | 6.0 | 16.0 | 0.00 | 0.00 | 0.00 | 63 | 1018.2 |
| 20260505173052 | 75 | 198 | 6.0 | 14.0 | 0.00 | 0.00 | 0.00 | 62 | 1018.4 |
| 20260505171518 | 75 | 143 | 3.0 | 10.0 | 0.00 | 0.00 | 0.00 | 62 | 1018.2 |
| 20260505170018 | 76 | 117 | 5.0 | 14.0 | 0.00 | 0.00 | 0.00 | 60 | 1018.4 |
| 20260505164646 | 76 | 256 | 1.0 | 10.0 | 0.00 | 0.00 | 0.00 | 60 | 1018.5 |
| 20260505163044 | 75 | 141 | 7.0 | 15.0 | 0.00 | 0.00 | 0.00 | 60 | 1018.6 |
| 20260505161550 | 75 | 337 | 6.0 | 14.0 | 0.00 | 0.00 | 0.00 | 62 | 1018.7 |
| 20260505153104 | 76 | 179 | 7.0 | 13.0 | 0.00 | 0.00 | 0.00 | 59 | 1018.6 |
| 20260505151554 | 76 | 127 | 2.0 | 12.0 | 0.00 | 0.00 | 0.00 | 58 | 1018.7 |
| 20260505124535 | 71 | 98 | 0.0 | 4.0 | 0.00 | 0.00 | 0.00 | 69 | 1018.5 |
| 20260505123024 | 69 | 110 | 0.0 | 2.0 | 0.00 | 0.00 | 0.00 | 76 | 1018.5 |
| 20260505121606 | 67 | 137 | 0.0 | 2.0 | 0.00 | 0.00 | 0.00 | 82 | 1018.5 |
| 20260505120049 | 63 | 141 | 0.0 | 0.0 | 0.00 | 0.00 | 0.00 | 90 | 1018.5 |
| 20260505114508 | 59 | 141 | 0.0 | 0.0 | 0.00 | 0.00 | 0.00 | 93 | 1018.4 |
| 20260505113012 | 57 | 141 | 0.0 | 0.0 | 0.00 | 0.00 | 0.00 | 92 | 1018.3 |
| 20260505111602 | 55 | 141 | 0.0 | 0.0 | 0.00 | 0.00 | 0.00 | 93 | 1018.2 |
| 20260505101552 | 53 | 140 | 0.0 | 0.0 | 0.00 | 0.00 | 0.00 | 92 | 1017.4 |
| 20260505100045 | 54 | 140 | 0.0 | 0.0 | 0.00 | 0.00 | 0.00 | 92 | 1017.2 |
| 20260505094533 | 54 | 141 | 0.0 | 0.0 | 0.00 | 0.00 | 0.00 | 92 | 1017.1 |
| 20260505093023 | 54 | 141 | 0.0 | 0.0 | 0.00 | 0.00 | 0.00 | 91 | 1016.9 |
| 20260505091520 | 54 | 141 | 0.0 | 0.0 | 0.00 | 0.00 | 0.00 | 91 | 1017.0 |
| 20260505090018 | 55 | 141 | 0.0 | 0.0 | 0.00 | 0.00 | 0.00 | 90 | 1016.8 |
| 20260505084554 | 56 | 141 | 0.0 | 0.0 | 0.00 | 0.00 | 0.00 | 90 | 1016.8 |
| 20260505083052 | 56 | 141 | 0.0 | 0.0 | 0.00 | 0.00 | 0.00 | 90 | 1016.8 |
| 20260505081547 | 56 | 141 | 0.0 | 0.0 | 0.00 | 0.00 | 0.00 | 89 | 1016.7 |
| 20260505080047 | 57 | 141 | 0.0 | 0.0 | 0.00 | 0.00 | 0.00 | 89 | 1016.6 |
| 20260505074522 | 58 | 141 | 0.0 | 0.0 | 0.00 | 0.00 | 0.00 | 88 | 1016.5 |